CAPE
0 0 0 0 0 0 1 2 3 3 13 9 13 17 40 42 22 29 13 8 12 23 25 32 33 28 9 18 22 29 23 23 12 22 20 1 0 0 0 0 0 0 14
0 0 0 0 0 0 2 8 10 10 8 16 10 25 22 36 25 5 14 11 10 11 9 5 22 31 23 14 7 10 28 22 18 22 0 0 0 2 0 0 0 0 10
0 0 0 0 0 1 3 8 15 15 36 39 20 14 21 10 9 11 9 12 8 9 12 12 6 5 6 20 9 9 16 11 8 3 0 0 0 2 7 2 0 1 2
0 0 0 0 0 0 1 4 7 21 20 32 11 4 5 9 10 12 14 13 12 9 10 7 8 13 12 25 8 16 19 23 13 6 0 0 0 0 1 13 4 6 2
0 0 0 0 0 0 3 4 5 8 9 5 11 9 8 4 3 5 9 9 7 9 8 6 5 8 11 9 4 7 3 13 6 0 0 0 0 0 0 3 5 4 5
0 0 0 0 0 0 1 4 9 5 9 8 6 8 5 3 1 1 3 2 5 6 8 5 5 6 5 5 10 14 7 19 3 0 0 0 0 0 1 4 6 3 3
0 0 0 0 0 0 1 2 4 5 3 3 3 4 3 0 0 0 0 0 3 4 3 6 4 4 6 5 4 6 9 3 0 0 0 0 0 0 0 1 4 5 6
0 0 0 0 0 0 0 0 0 0 0 0 0 0 0 0 0 0 0 0 1 3 3 5 5 6 5 6 5 3 2 2 0 0 0 0 0 0 0 2 5 5 7
0 0 0 0 0 0 0 0 0 0 0 0 0 0 0 0 0 0 0 0 1 4 5 4 4 7 5 5 2 0 0 0 0 0 0 0 0 0 0 3 4 4 6
0 0 0 0 0 0 0 0 0 0 0 0 0 0 0 0 0 0 0 0 1 2 4 5 5 6 4 1 0 0 0 0 0 0 0 0 0 0 1 2 4 5 6
0 0 0 0 0 0 0 0 0 0 0 0 0 0 0 0 0 0 0 0 0 1 2 5 6 6 1 0 0 0 0 0 0 0 0 0 0 0 4 5 7 7 9
0 0 0 0 0 0 0 0 0 0 0 0 0 0 0 0 0 0 0 0 0 0 0 1 2 1 0 0 0 0 0 0 0 0 0 0 0 1 7 10 7 8 6
0 0 0 0 0 0 0 0 0 0 0 0 0 0 0 0 0 0 0 0 0 0 0 0 0 0 0 0 0 0 0 0 0 0 0 0 0 0 2 8 11 11 6
0 0 0 0 0 0 0 0 0 0 0 0 0 0 0 0 0 0 0 0 0 0 0 0 0 0 0 0 0 0 0 0 0 0 0 0 0 0 2 5 12 13 11
0 0 0 0 0 0 0 0 0 0 0 0 0 0 0 0 0 0 0 0 0 0 0 0 0 0 0 0 0 0 0 0 0 0 0 0 0 0 0 6 11 18 16
0 0 0 0 0 0 0 0 0 0 0 0 0 0 0 0 0 0 0 0 0 0 1 0 1 0 0 0 0 0 0 0 0 0 0 0 0 1 2 4 5 10 16
0 0 0 0 0 0 0 0 0 0 0 0 0 0 0 0 0 0 0 0 0 0 1 0 0 1 1 0 0 0 0 0 0 0 0 0 0 0 0 0 3 6 12
0 0 0 0 0 0 0 0 0 0 0 0 0 0 0 0 0 0 0 0 0 0 2 3 1 2 3 0 0 0 0 0 0 0 0 0 0 0 0 0 6 6 9
0 0 0 0 0 0 0 0 0 0 0 0 0 0 0 0 0 0 0 0 0 0 0 0 2 5 8 1 0 0 0 0 0 0 0 0 0 1 0 0 0 2 9
0 0 0 0 0 0 0 0 0 0 0 0 0 0 0 0 0 0 0 0 0 0 0 0 0 0 0 1 0 0 0 0 0 0 0 0 0 4 0 0 0 0 2
0 0 0 0 0 0 0 0 0 0 0 0 0 0 0 0 0 0 0 0 0 0 0 0 0 0 0 0 0 0 0 0 0 0 0 0 0 0 0 0 0 0 0
0 0 0 0 0 0 0 0 0 0 0 0 0 0 0 0 0 0 0 0 0 0 0 0 0 0 0 0 0 0 0 0 0 0 0 0 0 0 0 0 0 0 0
0 0 0 0 0 0 0 0 0 0 0 0 0 0 0 0 0 0 0 0 0 0 0 0 0 0 0 0 1 17 10 7 2 0 0 0 0 0 0 0 0 0 0
0 0 0 0 0 0 0 0 0 0 0 0 0 0 0 0 0 0 0 0 0 0 0 0 0 1 1 0 1 0 6 2 15 2 0 0 0 0 0 0 0 3 4
0 0 0 0 0 0 0 0 0 0 0 0 0 0 0 0 0 0 0 0 0 0 0 0 0 0 0 0 0 1 0 6 0 9 3 0 0 0 0 0 0 1 0
0 0 0 0 0 0 0 0 0 0 0 0 0 0 0 0 0 0 0 0 0 0 1 0 0 0 0 0 0 0 0 3 4 5 4 1 3 0 0 0 0 0 0
CIN
0 0 0 -0 -0 -0 -0 -0 -0 -0 -0 -0 -3 -1 -1 -1 -2 -1 -1 -1 -2 -1 -1 -0 -1 -0 -3 -1 -0 -0 -0 -0 -0 -0 -0 -0 0 0 0 0 0 0 -1
0 0 0 0 0 0 0 -0 -0 -0 -0 -0 -2 -1 -3 -1 -3 -1 -1 -1 -2 -0 -2 -1 -1 -1 -0 -0 -1 -0 -1 -0 0 -0 0 0 0 -1 0 0 0 -0 -0
0 0 0 0 0 -0 -0 -1 -0 -0 -1 -0 -1 -1 -1 -1 -0 -1 -0 -0 -0 -0 -1 -1 -0 -1 -1 -1 -3 -0 -1 -1 -0 -0 -0 0 0 -5 -0 -0 0 -3 -5
0 0 0 0 0 0 -0 -1 -1 -1 -2 -0 -2 -1 -0 -1 -0 -0 -1 -0 -0 -0 -0 -0 -1 -1 -0 -0 -2 -1 -1 -1 -0 -0 0 0 0 0 -5 -0 -0 -2 -6
0 0 0 0 0 0 -0 -0 -0 -1 -1 -1 -1 -1 -1 -0 -0 -0 -1 -1 -1 -0 -1 -0 -0 -1 -1 -0 -0 -0 -1 -0 -1 -0 0 0 0 0 -0 -1 -1 -0 -0
0 0 0 0 0 0 0 -0 -1 -0 -0 -0 -0 -0 0 -1 -1 -1 -1 0 -0 -0 -1 -0 -0 -0 -0 -0 -0 -0 -0 -0 -0 0 0 0 0 0 -1 -1 -1 -0 -0
0 0 0 0 0 0 0 -0 -0 -1 -1 -1 -0 -0 -0 -0 0 -0 -0 -0 -0 -1 -1 -1 -1 -1 -1 -1 -1 -1 -0 -1 0 0 0 0 0 0 0 -1 -0 -1 -0
0 0 0 0 0 0 0 0 0 0 0 -0 0 0 0 0 0 0 0 -0 -0 -1 -1 -1 -1 -1 -1 -0 -0 -1 -1 -1 0 0 0 0 0 0 0 -0 -0 -1 -0
0 0 0 0 0 0 0 0 0 0 0 0 0 0 0 0 0 0 0 0 -0 -0 -0 -0 -0 -0 -0 -1 -0 -0 0 0 0 0 0 0 0 0 0 -1 -1 -0 -0
0 0 0 0 0 0 0 0 0 0 0 0 0 0 0 0 0 0 0 0 -0 -0 -1 -1 -1 -1 -1 -1 0 0 0 0 0 0 0 0 0 0 -0 -1 -0 -0 -0
0 0 0 0 0 0 0 0 0 0 0 0 0 0 0 0 0 0 0 0 0 -1 -0 -1 -0 -0 -0 0 0 0 0 0 0 0 0 0 0 -0 -1 -1 -1 -1 -1
0 0 0 0 0 0 0 0 0 0 0 0 0 0 0 0 0 0 0 0 0 0 0 -1 -1 -1 0 0 0 0 0 0 0 0 0 0 0 -0 -1 -1 -1 -0 -0
0 0 0 0 0 0 0 0 0 0 0 0 0 0 0 0 0 0 0 0 0 0 0 0 0 0 0 0 0 0 0 0 0 0 0 0 0 -0 -1 -1 -1 -0 -0
0 0 0 0 0 0 0 0 0 0 0 0 0 0 0 0 0 0 0 0 0 0 0 0 0 0 0 0 0 0 0 0 0 0 0 0 0 0 -1 -1 -0 -0 -0
0 0 0 0 0 0 0 0 0 0 0 0 0 0 0 0 0 0 0 0 0 0 0 0 0 0 0 0 0 0 0 0 0 0 0 0 0 0 -0 -1 -1 -1 -1
0 0 0 0 0 0 0 0 0 0 0 0 0 0 0 0 0 0 0 0 0 0 -1 -0 -0 -1 0 0 0 0 0 0 0 0 0 0 0 -0 -0 -0 -1 -0 -1
0 0 0 0 0 0 0 0 0 0 0 0 0 0 0 0 0 0 0 0 0 0 -2 -1 -2 -2 -2 -1 0 0 0 0 0 0 0 0 0 -0 0 0 -1 -1 -1
0 0 0 0 0 0 0 0 0 0 0 0 0 0 0 0 0 0 0 0 0 0 -2 -5 -5 -9 -5 -1 0 0 0 0 0 0 0 0 0 0 0 0 -1 -1 -1
0 0 0 0 0 0 0 0 0 0 0 0 0 0 0 0 0 0 0 0 0 0 0 -3 -10 -6 -7 -3 0 -2 0 0 0 0 0 0 0 -6 0 0 0 -1 -1
0 0 0 0 0 0 0 0 0 0 0 0 0 0 0 0 0 0 0 0 0 0 0 0 0 0 -1 -1 0 0 0 0 0 0 0 0 -0 -9 0 0 0 0 -0
0 0 0 0 0 0 0 0 0 0 0 0 0 0 0 0 0 0 0 0 0 0 0 0 0 0 0 0 0 0 0 0 0 0 0 0 0 0 0 0 0 0 0
0 0 0 0 0 0 0 0 0 0 0 0 0 0 0 0 0 0 0 0 0 0 0 0 0 0 0 0 0 0 -0 -0 0 0 0 0 0 0 0 0 0 0 0
0 0 0 0 0 0 0 0 0 0 0 0 0 0 0 0 0 0 0 0 0 0 0 0 0 0 -2 0 -3 -1 -0 -0 -0 0 0 0 0 0 0 0 0 0 0
0 0 0 0 0 0 0 0 0 0 0 0 0 0 0 0 0 0 0 0 0 0 0 0 -1 -3 -7 -3 -10 -5 -5 -6 0 -0 -0 0 0 0 0 0 0 0 0
0 0 0 0 0 0 0 0 0 0 0 0 0 0 0 0 0 0 0 0 0 -0 -1 -0 0 0 -2 -1 0 -6 -5 -17 -18 -3 -0 -0 0 0 0 0 0 -0 0
0 0 0 0 0 0 0 0 0 0 0 0 0 0 0 0 0 0 0 0 0 -0 -2 -2 -7 0 0 0 0 -1 -2 -3 0 -1 -0 0 -4 -0 0 0 0 0 0
Wind_Speed
21 22 23 26 28 30 30 30 30 30 30 29 29 29 29 29 29 30 30 30 30 29 29 29 30 29 29 29 30 29 29 29 30 30 29 31 30 28 27 27 26 26 26
21 23 25 28 29 30 30 30 31 30 30 29 29 29 29 29 30 30 30 30 29 29 30 29 29 30 30 30 30 30 30 30 29 30 32 31 29 27 27 28 28 27 28
22 24 27 29 30 30 30 30 29 29 29 29 28 29 29 30 30 30 29 30 29 29 30 30 30 30 30 30 30 30 31 31 31 32 31 30 30 29 29 29 29 29 29
22 24 27 29 30 30 29 29 28 28 28 28 28 29 30 30 30 29 30 30 29 31 31 31 31 31 31 31 31 31 31 31 33 32 31 31 31 32 32 32 31 31 32
23 24 28 29 30 30 29 28 28 27 27 28 29 29 29 29 30 30 30 30 30 31 32 32 32 32 32 32 32 33 32 33 33 33 33 33 32 33 33 34 34 34 34
24 24 26 29 29 29 28 27 27 27 28 28 28 28 29 29 30 30 30 30 31 31 32 33 33 33 33 33 33 34 34 34 34 34 34 34 34 33 35 36 36 37 36
23 24 25 28 28 28 28 27 27 27 27 27 28 28 28 28 29 29 30 31 32 32 33 33 34 34 34 35 35 35 35 36 34 33 34 34 33 34 35 36 36 37 38
24 25 26 26 26 25 26 27 27 27 28 27 27 28 28 28 28 29 30 31 33 34 34 34 34 35 35 35 35 35 34 34 34 34 33 33 33 33 33 35 36 37 38
24 25 25 24 25 24 25 27 27 28 28 27 28 28 29 28 29 30 31 32 33 34 34 35 34 35 35 36 35 34 34 35 33 32 32 33 32 32 34 36 37 38 39
23 23 23 24 25 25 24 25 26 27 27 27 29 30 31 30 31 32 32 33 34 34 35 34 35 35 35 34 34 35 35 34 32 33 33 34 34 34 35 37 38 39 39
22 22 23 23 23 21 19 23 25 27 27 28 29 31 31 31 31 31 32 33 34 34 35 34 35 35 34 34 35 35 35 33 35 35 34 35 35 36 37 38 39 40 41
20 21 21 22 22 23 23 23 24 25 27 27 29 30 31 31 32 32 33 34 34 34 35 35 35 35 35 35 34 35 33 34 34 34 34 36 37 38 39 40 41 41 42
19 20 20 21 21 23 21 23 24 24 27 27 28 29 31 31 32 32 32 32 33 34 33 34 35 34 35 35 34 34 34 34 32 33 34 37 38 39 41 42 43 43 44
19 19 20 19 21 22 22 25 25 25 26 26 26 28 29 30 31 33 32 32 33 35 35 35 34 35 35 35 35 36 34 34 33 33 33 36 37 39 41 42 43 44 45
19 18 18 19 21 22 23 24 22 23 23 21 24 26 29 30 31 31 31 32 32 35 35 35 35 35 35 35 35 35 37 36 35 34 33 35 37 40 41 42 43 45 47
18 19 19 20 21 18 19 20 17 20 17 23 25 26 29 29 30 30 30 31 33 34 35 34 35 35 35 36 36 37 37 37 38 38 37 36 38 40 40 41 44 46 48
18 17 18 17 17 18 18 19 18 21 19 21 22 25 29 28 30 30 29 29 31 34 33 33 34 34 36 36 35 36 36 37 37 37 36 36 37 35 41 45 46 48 49
15 17 16 16 16 18 19 17 19 19 19 20 21 25 24 24 24 18 16 18 24 27 25 28 32 35 34 35 36 35 36 35 35 34 32 33 35 39 40 43 47 51 52
13 13 13 12 13 13 14 13 15 15 16 16 18 19 19 20 19 17 18 18 22 23 22 21 19 22 29 35 36 35 35 37 34 32 31 34 37 36 39 44 52 50 51
14 13 13 12 12 11 12 13 14 16 17 18 18 18 19 18 19 18 19 17 20 21 22 25 25 22 23 26 30 33 35 33 32 32 35 36 38 37 40 45 44 45 49
15 15 14 13 12 12 12 13 12 14 15 15 15 15 18 18 19 18 20 20 20 22 22 27 26 25 26 26 28 33 33 27 31 34 35 37 38 41 40 44 42 41 44
15 15 14 13 13 13 12 13 13 12 13 13 16 16 17 17 19 21 21 21 21 23 24 26 28 29 28 31 30 28 31 32 28 37 31 35 39 40 39 42 40 41 42
14 14 13 13 12 12 14 12 12 11 12 14 15 16 17 18 19 21 22 23 25 25 24 26 25 27 29 31 32 30 30 31 42 30 33 30 38 40 37 39 37 38 39
13 13 12 12 11 12 13 11 13 12 13 14 14 15 15 17 18 19 21 23 24 24 27 28 27 26 27 29 30 29 29 28 35 41 31 34 37 36 35 34 34 34 35
13 12 11 11 11 11 11 12 12 12 13 13 14 15 15 17 17 18 21 21 24 25 27 28 27 28 29 29 30 30 33 30 32 29 37 38 36 34 30 32 32 32 31
11 11 10 9 9 10 10 10 10 11 11 12 13 14 16 16 17 19 21 21 22 23 24 26 26 27 29 29 29 30 33 31 35 31 28 35 33 30 26 30 31 30 25
Wind_Direction
7 8 359 350 345 342 341 339 339 339 339 337 339 337 336 336 336 332 331 330 328 332 328 328 325 324 321 316 313 314 316 312 300 302 302 297 294 297 298 299 299 295 299
3 0 359 350 344 343 342 341 338 337 336 337 338 337 337 337 335 334 333 333 333 331 329 329 328 325 322 319 317 309 311 313 311 305 299 296 296 298 298 296 296 294 293
2 358 351 349 347 345 344 344 344 344 342 341 340 339 336 336 334 333 333 331 332 332 331 330 327 325 323 321 319 316 308 307 310 306 305 297 298 294 295 296 293 292 290
1 360 353 349 349 348 347 347 346 346 344 343 341 340 338 337 337 336 334 333 331 330 329 329 326 325 323 322 319 316 314 309 303 307 304 299 295 292 289 293 290 289 287
3 2 354 352 350 349 349 349 349 349 349 347 343 342 341 340 338 337 336 334 332 330 329 327 326 325 323 320 318 315 313 310 307 304 301 299 296 293 289 290 289 286 285
3 3 2 357 355 354 354 355 354 353 349 348 346 344 342 340 339 338 337 336 333 331 329 327 326 323 322 321 318 314 312 311 308 303 299 296 296 294 290 287 286 284 282
9 5 6 0 358 358 358 356 356 355 354 352 350 347 343 341 339 339 337 335 333 330 328 326 324 323 321 319 317 315 313 310 309 307 300 297 297 295 292 289 287 285 280
7 4 2 4 6 9 7 3 0 357 354 353 352 350 347 344 340 337 335 333 330 328 327 326 324 322 320 319 317 316 315 312 310 306 302 299 298 295 295 292 289 286 282
9 8 11 14 11 8 5 358 354 353 352 352 349 345 341 343 341 336 334 331 329 327 326 324 323 322 320 318 317 316 315 313 310 307 304 303 299 297 296 293 291 287 283
16 18 18 17 14 10 12 7 1 357 356 353 348 343 341 342 340 337 335 334 330 329 326 324 323 322 321 320 319 316 314 313 312 310 306 303 299 298 296 294 291 288 284
22 25 24 22 27 38 42 27 15 355 352 351 348 343 342 341 344 343 338 336 334 331 330 328 325 324 323 322 319 317 316 315 312 309 306 302 299 297 295 294 291 288 285
37 38 41 36 31 30 26 24 17 8 1 360 355 351 346 344 344 342 339 337 336 334 332 330 328 327 325 323 321 318 318 316 315 312 309 304 301 297 294 292 291 288 286
48 41 41 38 34 28 33 25 22 21 7 4 359 360 353 353 352 352 351 349 348 342 342 338 332 330 328 325 324 321 317 316 317 314 313 308 304 300 296 292 289 287 285
51 49 45 46 41 35 35 21 19 19 18 17 18 10 11 5 1 356 356 355 353 347 343 342 338 332 332 328 323 320 320 318 319 317 314 311 308 303 299 295 291 286 283
55 57 55 53 42 39 34 29 35 33 32 40 30 22 16 12 8 6 5 2 0 354 349 346 343 338 334 332 329 323 320 319 317 316 315 312 309 306 302 297 294 290 284
65 57 55 49 47 56 52 47 58 50 56 34 30 26 17 16 13 12 9 6 2 358 353 350 346 343 339 334 331 327 322 321 319 316 315 314 309 306 304 301 297 292 287
64 70 61 67 67 59 57 55 55 48 52 45 43 34 22 22 16 13 12 10 8 0 356 352 348 346 341 338 334 331 327 324 324 319 318 317 311 311 305 301 297 293 288
93 76 77 75 70 59 56 60 55 53 55 52 45 36 35 36 34 41 42 37 31 23 18 7 356 349 346 342 339 336 331 330 329 328 326 322 315 310 308 304 298 293 287
133 126 117 113 98 89 79 85 77 79 71 69 60 54 51 47 47 46 42 38 33 31 32 27 21 15 2 350 343 339 336 332 331 334 332 323 316 315 313 309 304 295 289
141 142 140 129 114 105 100 89 84 75 66 60 56 55 53 51 47 47 43 41 37 34 32 29 23 18 14 7 357 346 338 336 337 339 331 323 317 317 317 316 313 305 294
141 140 137 128 116 103 104 90 89 77 71 69 70 64 54 52 48 46 41 39 37 33 32 27 24 20 16 14 7 356 347 346 340 337 333 327 320 320 320 320 318 314 303
139 127 125 122 112 104 101 92 86 85 76 76 63 60 53 51 46 42 39 36 34 29 27 25 23 20 18 13 9 6 359 348 348 337 338 333 328 326 325 325 323 317 309
136 128 128 118 109 102 79 85 82 81 75 70 57 53 47 45 42 39 36 32 29 26 23 21 20 19 15 13 11 9 4 355 336 346 338 341 334 331 334 331 328 322 310
129 112 111 109 102 87 80 87 74 72 64 56 55 50 47 43 40 38 35 31 28 25 20 17 16 14 12 9 9 9 6 359 349 334 340 340 337 339 341 337 327 316 321
125 116 121 111 98 88 82 75 69 64 58 55 50 44 42 39 37 35 30 28 25 22 19 17 15 14 12 10 8 6 4 5 356 353 332 331 342 348 353 345 329 319 314
115 113 114 104 99 87 82 78 71 62 56 49 45 40 38 34 32 30 26 24 22 20 18 15 15 15 13 11 10 9 7 7 359 360 354 333 350 355 1 351 336 314 301